Year,Month,Day,Hour,Minute,Value (Times are PST for insolation in W/m^2)
2019,08,14,00,00,0.00
2019,08,14,00,01,0.00
2019,08,14,00,02,0.00
2019,08,14,00,03,0.00
2019,08,14,00,04,0.00
2019,08,14,00,05,0.00
2019,08,14,00,06,0.00
2019,08,14,00,07,0.00
2019,08,14,00,08,0.00
2019,08,14,00,09,0.00
2019,08,14,00,10,0.00
2019,08,14,00,11,0.00
2019,08,14,00,12,0.00
2019,08,14,00,13,0.00
2019,08,14,00,14,0.00
2019,08,14,00,15,0.00
2019,08,14,00,16,0.00
2019,08,14,00,17,0.00
2019,08,14,00,18,0.00
2019,08,14,00,19,0.00
2019,08,14,00,20,0.00
2019,08,14,00,21,0.00
2019,08,14,00,22,0.00
2019,08,14,00,23,0.00
2019,08,14,00,24,0.00
2019,08,14,00,25,0.00
2019,08,14,00,26,0.00
2019,08,14,00,27,0.00
2019,08,14,00,28,0.00
2019,08,14,00,29,0.00
2019,08,14,00,30,0.00
2019,08,14,00,31,0.00
2019,08,14,00,32,0.00
2019,08,14,00,33,0.00
2019,08,14,00,34,0.00
2019,08,14,00,35,0.00
2019,08,14,00,36,0.00
2019,08,14,00,37,0.00
2019,08,14,00,38,0.00
2019,08,14,00,39,0.00
2019,08,14,00,40,0.00
2019,08,14,00,41,0.00
2019,08,14,00,42,0.00
2019,08,14,00,43,0.00
2019,08,14,00,44,0.00
2019,08,14,00,45,0.00
2019,08,14,00,46,0.00
2019,08,14,00,47,0.00
2019,08,14,00,48,0.00
2019,08,14,00,49,0.00
2019,08,14,00,50,0.00
2019,08,14,00,51,0.00
2019,08,14,00,52,0.00
2019,08,14,00,53,0.00
2019,08,14,00,54,0.00
2019,08,14,00,55,0.00
2019,08,14,00,56,0.00
2019,08,14,00,57,0.00
2019,08,14,00,58,0.00
2019,08,14,00,59,0.00
2019,08,14,01,00,0.00
2019,08,14,01,01,0.00
2019,08,14,01,02,0.00
2019,08,14,01,03,0.00
2019,08,14,01,04,0.00
2019,08,14,01,05,0.00
2019,08,14,01,06,0.00
2019,08,14,01,07,0.00
2019,08,14,01,08,0.00
2019,08,14,01,09,0.00
2019,08,14,01,10,0.00
2019,08,14,01,11,0.00
2019,08,14,01,12,0.00
2019,08,14,01,13,0.00
2019,08,14,01,14,0.00
2019,08,14,01,15,0.00
2019,08,14,01,16,0.00
2019,08,14,01,17,0.00
2019,08,14,01,18,0.00
2019,08,14,01,19,0.00
2019,08,14,01,20,0.00
2019,08,14,01,21,0.00
2019,08,14,01,22,0.00
2019,08,14,01,23,0.00
2019,08,14,01,24,0.00
2019,08,14,01,25,0.00
2019,08,14,01,26,0.00
2019,08,14,01,27,0.00
2019,08,14,01,28,0.00
2019,08,14,01,29,0.00
2019,08,14,01,30,0.00
2019,08,14,01,31,0.00
2019,08,14,01,32,0.00
2019,08,14,01,33,0.00
2019,08,14,01,34,0.00
2019,08,14,01,35,0.00
2019,08,14,01,36,0.00
2019,08,14,01,37,0.00
2019,08,14,01,38,0.00
2019,08,14,01,39,0.00
2019,08,14,01,40,0.00
2019,08,14,01,41,0.00
2019,08,14,01,42,0.00
2019,08,14,01,43,0.00
2019,08,14,01,44,0.00
2019,08,14,01,45,0.00
2019,08,14,01,46,0.00
2019,08,14,01,47,0.00
2019,08,14,01,48,0.00
2019,08,14,01,49,0.00
2019,08,14,01,50,0.00
2019,08,14,01,51,0.00
2019,08,14,01,52,0.00
2019,08,14,01,53,0.00
2019,08,14,01,54,0.00
2019,08,14,01,55,0.00
2019,08,14,01,56,0.00
2019,08,14,01,57,0.00
2019,08,14,01,58,0.00
2019,08,14,01,59,0.00
2019,08,14,02,00,0.00
2019,08,14,02,01,0.00
2019,08,14,02,02,0.00
2019,08,14,02,03,0.00
2019,08,14,02,04,0.00
2019,08,14,02,05,0.00
2019,08,14,02,06,0.00
2019,08,14,02,07,0.00
2019,08,14,02,08,0.00
2019,08,14,02,09,0.00
2019,08,14,02,10,0.00
2019,08,14,02,11,0.00
2019,08,14,02,12,0.00
2019,08,14,02,13,0.00
2019,08,14,02,14,0.00
2019,08,14,02,15,0.00
2019,08,14,02,16,0.00
2019,08,14,02,17,0.00
2019,08,14,02,18,0.00
2019,08,14,02,19,0.00
2019,08,14,02,20,0.00
2019,08,14,02,21,0.00
2019,08,14,02,22,0.00
2019,08,14,02,23,0.00
2019,08,14,02,24,0.00
2019,08,14,02,25,0.00
2019,08,14,02,26,0.00
2019,08,14,02,27,0.00
2019,08,14,02,28,0.00
2019,08,14,02,29,0.00
2019,08,14,02,30,0.00
2019,08,14,02,31,0.00
2019,08,14,02,32,0.00
2019,08,14,02,33,0.00
2019,08,14,02,34,0.00
2019,08,14,02,35,0.00
2019,08,14,02,36,0.00
2019,08,14,02,37,0.00
2019,08,14,02,38,0.00
2019,08,14,02,39,0.00
2019,08,14,02,40,0.00
2019,08,14,02,41,0.00
2019,08,14,02,42,0.00
2019,08,14,02,43,0.00
2019,08,14,02,44,0.00
2019,08,14,02,45,0.00
2019,08,14,02,46,0.00
2019,08,14,02,47,0.00
2019,08,14,02,48,0.00
2019,08,14,02,49,0.00
2019,08,14,02,50,0.00
2019,08,14,02,51,0.00
2019,08,14,02,52,0.00
2019,08,14,02,53,0.00
2019,08,14,02,54,0.00
2019,08,14,02,55,0.00
2019,08,14,02,56,0.00
2019,08,14,02,57,0.00
2019,08,14,02,58,0.00
2019,08,14,02,59,0.00
2019,08,14,03,00,0.00
2019,08,14,03,01,0.00
2019,08,14,03,02,0.00
2019,08,14,03,03,0.00
2019,08,14,03,04,0.00
2019,08,14,03,05,0.00
2019,08,14,03,06,0.00
2019,08,14,03,07,0.00
2019,08,14,03,08,0.00
2019,08,14,03,09,0.00
2019,08,14,03,10,0.00
2019,08,14,03,11,0.00
2019,08,14,03,12,0.00
2019,08,14,03,13,0.00
2019,08,14,03,14,0.00
2019,08,14,03,15,0.00
2019,08,14,03,16,0.00
2019,08,14,03,17,0.00
2019,08,14,03,18,0.00
2019,08,14,03,19,0.00
2019,08,14,03,20,0.00
2019,08,14,03,21,0.00
2019,08,14,03,22,0.00
2019,08,14,03,23,0.00
2019,08,14,03,24,0.00
2019,08,14,03,25,0.00
2019,08,14,03,26,0.00
2019,08,14,03,27,0.00
2019,08,14,03,28,0.00
2019,08,14,03,29,0.00
2019,08,14,03,30,0.00
2019,08,14,03,31,0.00
2019,08,14,03,32,0.00
2019,08,14,03,33,0.00
2019,08,14,03,34,0.00
2019,08,14,03,35,0.00
2019,08,14,03,36,0.00
2019,08,14,03,37,0.00
2019,08,14,03,38,0.00
2019,08,14,03,39,0.00
2019,08,14,03,40,0.00
2019,08,14,03,41,0.00
2019,08,14,03,42,0.00
2019,08,14,03,43,0.00
2019,08,14,03,44,0.00
2019,08,14,03,45,0.00
2019,08,14,03,46,0.00
2019,08,14,03,47,0.00
2019,08,14,03,48,0.00
2019,08,14,03,49,0.00
2019,08,14,03,50,0.00
2019,08,14,03,51,0.00
2019,08,14,03,52,0.00
2019,08,14,03,53,0.00
2019,08,14,03,54,0.00
2019,08,14,03,55,0.00
2019,08,14,03,56,0.00
2019,08,14,03,57,0.00
2019,08,14,03,58,0.00
2019,08,14,03,59,0.00
2019,08,14,04,00,0.00
2019,08,14,04,01,0.00
2019,08,14,04,02,0.00
2019,08,14,04,03,0.00
2019,08,14,04,04,0.00
2019,08,14,04,05,0.00
2019,08,14,04,06,0.00
2019,08,14,04,07,0.00
2019,08,14,04,08,0.00
2019,08,14,04,09,0.00
2019,08,14,04,10,0.00
2019,08,14,04,11,0.00
2019,08,14,04,12,0.00
2019,08,14,04,13,0.00
2019,08,14,04,14,0.00
2019,08,14,04,15,0.00
2019,08,14,04,16,0.00
2019,08,14,04,17,0.00
2019,08,14,04,18,0.00
2019,08,14,04,19,0.00
2019,08,14,04,20,0.00
2019,08,14,04,21,0.00
2019,08,14,04,22,0.00
2019,08,14,04,23,0.00
2019,08,14,04,24,0.00
2019,08,14,04,25,0.00
2019,08,14,04,26,0.00
2019,08,14,04,27,0.00
2019,08,14,04,28,0.00
2019,08,14,04,29,0.00
2019,08,14,04,30,0.00
2019,08,14,04,31,0.00
2019,08,14,04,32,0.00
2019,08,14,04,33,0.00
2019,08,14,04,34,0.00
2019,08,14,04,35,0.00
2019,08,14,04,36,0.00
2019,08,14,04,37,0.00
2019,08,14,04,38,0.00
2019,08,14,04,39,0.00
2019,08,14,04,40,0.00
2019,08,14,04,41,0.00
2019,08,14,04,42,0.00
2019,08,14,04,43,0.00
2019,08,14,04,44,0.00
2019,08,14,04,45,0.00
2019,08,14,04,46,0.00
2019,08,14,04,47,0.00
2019,08,14,04,48,0.00
2019,08,14,04,49,0.00
2019,08,14,04,50,0.00
2019,08,14,04,51,0.00
2019,08,14,04,52,0.00
2019,08,14,04,53,0.00
2019,08,14,04,54,0.00
2019,08,14,04,55,0.00
2019,08,14,04,56,0.00
2019,08,14,04,57,0.00
2019,08,14,04,58,0.00
2019,08,14,04,59,0.00
2019,08,14,05,00,0.00
2019,08,14,05,01,0.00
2019,08,14,05,02,0.00
2019,08,14,05,03,0.00
2019,08,14,05,04,0.00
2019,08,14,05,05,0.00
2019,08,14,05,06,0.00
2019,08,14,05,07,0.00
2019,08,14,05,08,0.00
2019,08,14,05,09,0.00
2019,08,14,05,10,0.00
2019,08,14,05,11,0.00
2019,08,14,05,12,0.00
2019,08,14,05,13,0.00
2019,08,14,05,14,0.00
2019,08,14,05,15,0.00
2019,08,14,05,16,0.00
2019,08,14,05,17,0.00
2019,08,14,05,18,0.00
2019,08,14,05,19,0.00
2019,08,14,05,20,0.00
2019,08,14,05,21,0.00
2019,08,14,05,22,0.00
2019,08,14,05,23,0.00
2019,08,14,05,24,0.00
2019,08,14,05,25,0.00
2019,08,14,05,26,0.00
2019,08,14,05,27,0.00
2019,08,14,05,28,0.00
2019,08,14,05,29,0.00
2019,08,14,05,30,0.00
2019,08,14,05,31,0.00
2019,08,14,05,32,0.00
2019,08,14,05,33,0.00
2019,08,14,05,34,0.00
2019,08,14,05,35,0.00
2019,08,14,05,36,0.00
2019,08,14,05,37,0.00
2019,08,14,05,38,0.00
2019,08,14,05,39,0.00
2019,08,14,05,40,0.00
2019,08,14,05,41,0.00
2019,08,14,05,42,0.00
2019,08,14,05,43,0.00
2019,08,14,05,44,0.00
2019,08,14,05,45,0.00
2019,08,14,05,46,0.00
2019,08,14,05,47,0.00
2019,08,14,05,48,0.00
2019,08,14,05,49,0.00
2019,08,14,05,50,0.00
2019,08,14,05,51,0.00
2019,08,14,05,52,0.00
2019,08,14,05,53,0.00
2019,08,14,05,54,0.00
2019,08,14,05,55,0.00
2019,08,14,05,56,0.00
2019,08,14,05,57,0.00
2019,08,14,05,58,0.00
2019,08,14,05,59,0.00
2019,08,14,06,00,0.00
2019,08,14,06,01,0.00
2019,08,14,06,02,0.00
2019,08,14,06,03,0.00
2019,08,14,06,04,0.00
2019,08,14,06,05,0.00
2019,08,14,06,06,0.00
2019,08,14,06,07,0.50
2019,08,14,06,08,5.00
2019,08,14,06,09,5.00
2019,08,14,06,10,5.00
2019,08,14,06,11,6.10
2019,08,14,06,12,7.00
2019,08,14,06,13,7.00
2019,08,14,06,14,7.00
2019,08,14,06,15,8.90
2019,08,14,06,16,9.40
2019,08,14,06,17,11.00
2019,08,14,06,18,11.00
2019,08,14,06,19,11.50
2019,08,14,06,20,12.00
2019,08,14,06,21,12.00
2019,08,14,06,22,13.60
2019,08,14,06,23,14.00
2019,08,14,06,24,14.20
2019,08,14,06,25,16.00
2019,08,14,06,26,16.00
2019,08,14,06,27,16.80
2019,08,14,06,28,18.00
2019,08,14,06,29,18.00
2019,08,14,06,30,18.70
2019,08,14,06,31,19.00
2019,08,14,06,32,19.10
2019,08,14,06,33,21.00
2019,08,14,06,34,21.00
2019,08,14,06,35,21.70
2019,08,14,06,36,23.00
2019,08,14,06,37,24.20
2019,08,14,06,38,25.70
2019,08,14,06,39,27.50
2019,08,14,06,40,28.00
2019,08,14,06,41,28.00
2019,08,14,06,42,28.40
2019,08,14,06,43,30.00
2019,08,14,06,44,31.30
2019,08,14,06,45,35.00
2019,08,14,06,46,37.00
2019,08,14,06,47,38.40
2019,08,14,06,48,41.50
2019,08,14,06,49,46.50
2019,08,14,06,50,49.00
2019,08,14,06,51,49.50
2019,08,14,06,52,51.60
2019,08,14,06,53,53.00
2019,08,14,06,54,53.00
2019,08,14,06,55,53.00
2019,08,14,06,56,56.80
2019,08,14,06,57,59.70
2019,08,14,06,58,61.90
2019,08,14,06,59,62.00
2019,08,14,07,00,62.00
2019,08,14,07,01,64.00
2019,08,14,07,02,67.00
2019,08,14,07,03,68.20
2019,08,14,07,04,69.70
2019,08,14,07,05,71.60
2019,08,14,07,06,73.80
2019,08,14,07,07,76.10
2019,08,14,07,08,77.40
2019,08,14,07,09,80.20
2019,08,14,07,10,83.40
2019,08,14,07,11,85.10
2019,08,14,07,12,87.30
2019,08,14,07,13,90.10
2019,08,14,07,14,92.60
2019,08,14,07,15,95.00
2019,08,14,07,16,97.40
2019,08,14,07,17,100.50
2019,08,14,07,18,103.10
2019,08,14,07,19,105.90
2019,08,14,07,20,108.10
2019,08,14,07,21,111.60
2019,08,14,07,22,113.80
2019,08,14,07,23,115.80
2019,08,14,07,24,119.90
2019,08,14,07,25,121.40
2019,08,14,07,26,123.00
2019,08,14,07,27,125.00
2019,08,14,07,28,130.00
2019,08,14,07,29,133.20
2019,08,14,07,30,134.70
2019,08,14,07,31,138.20
2019,08,14,07,32,140.80
2019,08,14,07,33,144.30
2019,08,14,07,34,146.60
2019,08,14,07,35,149.70
2019,08,14,07,36,152.80
2019,08,14,07,37,153.90
2019,08,14,07,38,153.00
2019,08,14,07,39,100.50
2019,08,14,07,40,91.50
2019,08,14,07,41,92.20
2019,08,14,07,42,79.40
2019,08,14,07,43,107.70
2019,08,14,07,44,142.00
2019,08,14,07,45,142.00
2019,08,14,07,46,165.40
2019,08,14,07,47,182.40
2019,08,14,07,48,184.60
2019,08,14,07,49,187.70
2019,08,14,07,50,190.20
2019,08,14,07,51,192.60
2019,08,14,07,52,195.60
2019,08,14,07,53,197.80
2019,08,14,07,54,199.50
2019,08,14,07,55,202.40
2019,08,14,07,56,205.50
2019,08,14,07,57,206.80
2019,08,14,07,58,210.90
2019,08,14,07,59,213.00
2019,08,14,08,00,213.80
2019,08,14,08,01,216.70
2019,08,14,08,02,219.40
2019,08,14,08,03,222.10
2019,08,14,08,04,225.60
2019,08,14,08,05,228.50
2019,08,14,08,06,229.90
2019,08,14,08,07,234.00
2019,08,14,08,08,236.60
2019,08,14,08,09,239.60
2019,08,14,08,10,241.80
2019,08,14,08,11,243.50
2019,08,14,08,12,244.00
2019,08,14,08,13,248.20
2019,08,14,08,14,252.40
2019,08,14,08,15,254.80
2019,08,14,08,16,257.30
2019,08,14,08,17,260.40
2019,08,14,08,18,262.70
2019,08,14,08,19,265.40
2019,08,14,08,20,268.10
2019,08,14,08,21,270.80
2019,08,14,08,22,273.50
2019,08,14,08,23,275.70
2019,08,14,08,24,279.00
2019,08,14,08,25,281.30
2019,08,14,08,26,283.00
2019,08,14,08,27,285.00
2019,08,14,08,28,289.80
2019,08,14,08,29,293.20
2019,08,14,08,30,294.00
2019,08,14,08,31,294.00
2019,08,14,08,32,300.60
2019,08,14,08,33,302.40
2019,08,14,08,34,306.40
2019,08,14,08,35,308.30
2019,08,14,08,36,309.90
2019,08,14,08,37,312.10
2019,08,14,08,38,314.30
2019,08,14,08,39,317.20
2019,08,14,08,40,321.40
2019,08,14,08,41,325.00
2019,08,14,08,42,327.50
2019,08,14,08,43,330.50
2019,08,14,08,44,333.40
2019,08,14,08,45,337.40
2019,08,14,08,46,340.10
2019,08,14,08,47,342.30
2019,08,14,08,48,345.20
2019,08,14,08,49,347.80
2019,08,14,08,50,350.20
2019,08,14,08,51,352.60
2019,08,14,08,52,355.60
2019,08,14,08,53,357.00
2019,08,14,08,54,358.00
2019,08,14,08,55,359.60
2019,08,14,08,56,361.40
2019,08,14,08,57,363.60
2019,08,14,08,58,368.50
2019,08,14,08,59,371.30
2019,08,14,09,00,373.80
2019,08,14,09,01,376.70
2019,08,14,09,02,378.90
2019,08,14,09,03,380.50
2019,08,14,09,04,382.30
2019,08,14,09,05,386.00
2019,08,14,09,06,389.50
2019,08,14,09,07,392.20
2019,08,14,09,08,400.00
2019,08,14,09,09,405.00
2019,08,14,09,10,412.00
2019,08,14,09,11,420.00
2019,08,14,09,12,422.00
2019,08,14,09,13,429.00
2019,08,14,09,14,440.90
2019,08,14,09,15,452.90
2019,08,14,09,16,454.00
2019,08,14,09,17,460.90
2019,08,14,09,18,485.50
2019,08,14,09,19,492.70
2019,08,14,09,20,496.00
2019,08,14,09,21,496.60
2019,08,14,09,22,496.30
2019,08,14,09,23,492.80
2019,08,14,09,24,490.20
2019,08,14,09,25,493.00
2019,08,14,09,26,500.20
2019,08,14,09,27,506.10
2019,08,14,09,28,514.00
2019,08,14,09,29,523.40
2019,08,14,09,30,534.20
2019,08,14,09,31,543.20
2019,08,14,09,32,558.60
2019,08,14,09,33,578.20
2019,08,14,09,34,592.20
2019,08,14,09,35,587.90
2019,08,14,09,36,566.40
2019,08,14,09,37,609.00
2019,08,14,09,38,631.20
2019,08,14,09,39,635.00
2019,08,14,09,40,635.00
2019,08,14,09,41,339.10
2019,08,14,09,42,308.00
2019,08,14,09,43,296.80
2019,08,14,09,44,260.70
2019,08,14,09,45,291.80
2019,08,14,09,46,316.00
2019,08,14,09,47,316.00
2019,08,14,09,48,316.00
2019,08,14,09,49,507.20
2019,08,14,09,50,537.20
2019,08,14,09,51,528.40
2019,08,14,09,52,526.90
2019,08,14,09,53,531.00
2019,08,14,09,54,535.90
2019,08,14,09,55,539.10
2019,08,14,09,56,538.60
2019,08,14,09,57,549.20
2019,08,14,09,58,552.00
2019,08,14,09,59,555.40
2019,08,14,10,00,559.00
2019,08,14,10,01,559.00
2019,08,14,10,02,559.00
2019,08,14,10,03,548.50
2019,08,14,10,04,546.50
2019,08,14,10,05,532.30
2019,08,14,10,06,538.10
2019,08,14,10,07,541.00
2019,08,14,10,08,541.30
2019,08,14,10,09,543.00
2019,08,14,10,10,543.70
2019,08,14,10,11,545.00
2019,08,14,10,12,546.20
2019,08,14,10,13,547.70
2019,08,14,10,14,549.60
2019,08,14,10,15,551.80
2019,08,14,10,16,554.30
2019,08,14,10,17,557.40
2019,08,14,10,18,559.50
2019,08,14,10,19,561.90
2019,08,14,10,20,563.50
2019,08,14,10,21,565.20
2019,08,14,10,22,567.40
2019,08,14,10,23,570.30
2019,08,14,10,24,572.90
2019,08,14,10,25,573.40
2019,08,14,10,26,577.20
2019,08,14,10,27,579.90
2019,08,14,10,28,583.10
2019,08,14,10,29,582.00
2019,08,14,10,30,585.10
2019,08,14,10,31,588.50
2019,08,14,10,32,591.50
2019,08,14,10,33,594.00
2019,08,14,10,34,596.50
2019,08,14,10,35,599.50
2019,08,14,10,36,602.40
2019,08,14,10,37,605.00
2019,08,14,10,38,606.70
2019,08,14,10,39,609.40
2019,08,14,10,40,612.40
2019,08,14,10,41,612.10
2019,08,14,10,42,613.20
2019,08,14,10,43,615.00
2019,08,14,10,44,616.30
2019,08,14,10,45,622.20
2019,08,14,10,46,620.50
2019,08,14,10,47,621.90
2019,08,14,10,48,626.00
2019,08,14,10,49,628.50
2019,08,14,10,50,629.00
2019,08,14,10,51,628.80
2019,08,14,10,52,628.00
2019,08,14,10,53,628.30
2019,08,14,10,54,629.00
2019,08,14,10,55,630.10
2019,08,14,10,56,633.60
2019,08,14,10,57,635.00
2019,08,14,10,58,635.00
2019,08,14,10,59,636.00
2019,08,14,11,00,636.40
2019,08,14,11,01,639.00
2019,08,14,11,02,642.00
2019,08,14,11,03,642.50
2019,08,14,11,04,645.60
2019,08,14,11,05,647.00
2019,08,14,11,06,647.00
2019,08,14,11,07,645.10
2019,08,14,11,08,642.40
2019,08,14,11,09,598.80
2019,08,14,11,10,655.00
2019,08,14,11,11,657.00
2019,08,14,11,12,658.10
2019,08,14,11,13,661.60
2019,08,14,11,14,663.00
2019,08,14,11,15,663.00
2019,08,14,11,16,664.00
2019,08,14,11,17,664.80
2019,08,14,11,18,668.00
2019,08,14,11,19,668.00
2019,08,14,11,20,669.30
2019,08,14,11,21,672.10
2019,08,14,11,22,674.40
2019,08,14,11,23,678.20
2019,08,14,11,24,679.00
2019,08,14,11,25,680.20
2019,08,14,11,26,683.00
2019,08,14,11,27,686.00
2019,08,14,11,28,686.50
2019,08,14,11,29,687.00
2019,08,14,11,30,689.60
2019,08,14,11,31,691.00
2019,08,14,11,32,692.70
2019,08,14,11,33,695.80
2019,08,14,11,34,696.30
2019,08,14,11,35,698.00
2019,08,14,11,36,697.30
2019,08,14,11,37,698.20
2019,08,14,11,38,701.00
2019,08,14,11,39,701.00
2019,08,14,11,40,702.50
2019,08,14,11,41,704.70
2019,08,14,11,42,705.00
2019,08,14,11,43,705.50
2019,08,14,11,44,708.00
2019,08,14,11,45,708.80
2019,08,14,11,46,710.00
2019,08,14,11,47,710.00
2019,08,14,11,48,710.00
2019,08,14,11,49,711.60
2019,08,14,11,50,712.00
2019,08,14,11,51,714.00
2019,08,14,11,52,712.50
2019,08,14,11,53,709.40
2019,08,14,11,54,711.10
2019,08,14,11,55,702.30
2019,08,14,11,56,685.60
2019,08,14,11,57,686.80
2019,08,14,11,58,689.00
2019,08,14,11,59,696.20
2019,08,14,12,00,684.00
2019,08,14,12,01,678.50
2019,08,14,12,02,650.80
2019,08,14,12,03,657.70
2019,08,14,12,04,709.20
2019,08,14,12,05,725.40
2019,08,14,12,06,727.50
2019,08,14,12,07,726.20
2019,08,14,12,08,726.50
2019,08,14,12,09,729.00
2019,08,14,12,10,728.70
2019,08,14,12,11,725.50
2019,08,14,12,12,725.70
2019,08,14,12,13,731.60
2019,08,14,12,14,736.00
2019,08,14,12,15,737.00
2019,08,14,12,16,739.80
2019,08,14,12,17,740.60
2019,08,14,12,18,744.00
2019,08,14,12,19,744.00
2019,08,14,12,20,744.00
2019,08,14,12,21,745.80
2019,08,14,12,22,747.00
2019,08,14,12,23,747.00
2019,08,14,12,24,748.80
2019,08,14,12,25,749.20
2019,08,14,12,26,751.00
2019,08,14,12,27,751.00
2019,08,14,12,28,751.00
2019,08,14,12,29,751.50
2019,08,14,12,30,753.10
2019,08,14,12,31,754.00
2019,08,14,12,32,755.70
2019,08,14,12,33,754.20
2019,08,14,12,34,754.00
2019,08,14,12,35,754.50
2019,08,14,12,36,756.60
2019,08,14,12,37,758.00
2019,08,14,12,38,758.50
2019,08,14,12,39,760.30
2019,08,14,12,40,762.40
2019,08,14,12,41,759.80
2019,08,14,12,42,764.80
2019,08,14,12,43,766.00
2019,08,14,12,44,766.00
2019,08,14,12,45,766.70
2019,08,14,12,46,768.00
2019,08,14,12,47,770.30
2019,08,14,12,48,770.60
2019,08,14,12,49,751.80
2019,08,14,12,50,719.80
2019,08,14,12,51,773.70
2019,08,14,12,52,779.20
2019,08,14,12,53,779.20
2019,08,14,12,54,784.80
2019,08,14,12,55,784.00
2019,08,14,12,56,771.00
2019,08,14,12,57,770.20
2019,08,14,12,58,770.40
2019,08,14,12,59,779.10
2019,08,14,13,00,782.00
2019,08,14,13,01,782.60
2019,08,14,13,02,786.00
2019,08,14,13,03,789.00
2019,08,14,13,04,789.00
2019,08,14,13,05,789.00
2019,08,14,13,06,792.00
2019,08,14,13,07,789.60
2019,08,14,13,08,783.60
2019,08,14,13,09,777.60
2019,08,14,13,10,762.90
2019,08,14,13,11,752.20
2019,08,14,13,12,758.50
2019,08,14,13,13,757.60
2019,08,14,13,14,765.20
2019,08,14,13,15,760.70
2019,08,14,13,16,792.30
2019,08,14,13,17,792.70
2019,08,14,13,18,781.10
2019,08,14,13,19,789.70
2019,08,14,13,20,790.20
2019,08,14,13,21,783.80
2019,08,14,13,22,765.30
2019,08,14,13,23,753.50
2019,08,14,13,24,743.50
2019,08,14,13,25,728.30
2019,08,14,13,26,724.60
2019,08,14,13,27,732.90
2019,08,14,13,28,713.80
2019,08,14,13,29,730.90
2019,08,14,13,30,762.80
2019,08,14,13,31,757.40
2019,08,14,13,32,752.00
2019,08,14,13,33,763.70
2019,08,14,13,34,748.40
2019,08,14,13,35,767.00
2019,08,14,13,36,758.60
2019,08,14,13,37,742.10
2019,08,14,13,38,735.60
2019,08,14,13,39,750.60
2019,08,14,13,40,763.30
2019,08,14,13,41,781.20
2019,08,14,13,42,767.70
2019,08,14,13,43,774.60
2019,08,14,13,44,733.40
2019,08,14,13,45,720.00
2019,08,14,13,46,744.00
2019,08,14,13,47,708.00
2019,08,14,13,48,703.60
2019,08,14,13,49,730.20
2019,08,14,13,50,735.00
2019,08,14,13,51,734.40
2019,08,14,13,52,721.40
2019,08,14,13,53,676.30
2019,08,14,13,54,623.10
2019,08,14,13,55,605.40
2019,08,14,13,56,641.40
2019,08,14,13,57,646.30
2019,08,14,13,58,688.80
2019,08,14,13,59,675.00
2019,08,14,14,00,663.70
2019,08,14,14,01,719.80
2019,08,14,14,02,717.30
2019,08,14,14,03,730.10
2019,08,14,14,04,745.80
2019,08,14,14,05,751.00
2019,08,14,14,06,751.80
2019,08,14,14,07,752.00
2019,08,14,14,08,751.80
2019,08,14,14,09,747.70
2019,08,14,14,10,737.50
2019,08,14,14,11,728.50
2019,08,14,14,12,734.30
2019,08,14,14,13,729.20
2019,08,14,14,14,725.30
2019,08,14,14,15,712.00
2019,08,14,14,16,714.30
2019,08,14,14,17,708.00
2019,08,14,14,18,707.30
2019,08,14,14,19,708.50
2019,08,14,14,20,707.30
2019,08,14,14,21,712.70
2019,08,14,14,22,732.80
2019,08,14,14,23,737.80
2019,08,14,14,24,737.20
2019,08,14,14,25,737.70
2019,08,14,14,26,733.30
2019,08,14,14,27,734.00
2019,08,14,14,28,731.70
2019,08,14,14,29,732.10
2019,08,14,14,30,731.00
2019,08,14,14,31,731.00
2019,08,14,14,32,731.00
2019,08,14,14,33,728.50
2019,08,14,14,34,726.00
2019,08,14,14,35,726.00
2019,08,14,14,36,726.00
2019,08,14,14,37,726.00
2019,08,14,14,38,723.90
2019,08,14,14,39,722.00
2019,08,14,14,40,719.80
2019,08,14,14,41,719.00
2019,08,14,14,42,717.00
2019,08,14,14,43,715.00
2019,08,14,14,44,715.00
2019,08,14,14,45,715.00
2019,08,14,14,46,715.90
2019,08,14,14,47,715.90
2019,08,14,14,48,714.40
2019,08,14,14,49,714.80
2019,08,14,14,50,714.20
2019,08,14,14,51,713.80
2019,08,14,14,52,712.00
2019,08,14,14,53,710.80
2019,08,14,14,54,708.70
2019,08,14,14,55,708.70
2019,08,14,14,56,707.00
2019,08,14,14,57,705.60
2019,08,14,14,58,703.40
2019,08,14,14,59,703.00
2019,08,14,15,00,699.70
2019,08,14,15,01,698.00
2019,08,14,15,02,698.00
2019,08,14,15,03,698.00
2019,08,14,15,04,696.90
2019,08,14,15,05,694.70
2019,08,14,15,06,694.00
2019,08,14,15,07,691.60
2019,08,14,15,08,687.40
2019,08,14,15,09,687.00
2019,08,14,15,10,687.00
2019,08,14,15,11,685.80
2019,08,14,15,12,684.00
2019,08,14,15,13,681.70
2019,08,14,15,14,680.00
2019,08,14,15,15,681.60
2019,08,14,15,16,680.20
2019,08,14,15,17,679.00
2019,08,14,15,18,677.90
2019,08,14,15,19,672.30
2019,08,14,15,20,670.60
2019,08,14,15,21,670.00
2019,08,14,15,22,670.00
2019,08,14,15,23,670.00
2019,08,14,15,24,666.80
2019,08,14,15,25,663.30
2019,08,14,15,26,662.70
2019,08,14,15,27,661.00
2019,08,14,15,28,660.30
2019,08,14,15,29,659.00
2019,08,14,15,30,657.80
2019,08,14,15,31,655.00
2019,08,14,15,32,652.50
2019,08,14,15,33,650.30
2019,08,14,15,34,648.90
2019,08,14,15,35,646.60
2019,08,14,15,36,645.00
2019,08,14,15,37,645.00
2019,08,14,15,38,644.10
2019,08,14,15,39,643.00
2019,08,14,15,40,641.00
2019,08,14,15,41,638.40
2019,08,14,15,42,635.30
2019,08,14,15,43,634.80
2019,08,14,15,44,633.00
2019,08,14,15,45,631.70
2019,08,14,15,46,629.00
2019,08,14,15,47,628.50
2019,08,14,15,48,625.40
2019,08,14,15,49,624.00
2019,08,14,15,50,622.30
2019,08,14,15,51,621.00
2019,08,14,15,52,618.40
2019,08,14,15,53,615.00
2019,08,14,15,54,613.90
2019,08,14,15,55,612.00
2019,08,14,15,56,608.70
2019,08,14,15,57,607.30
2019,08,14,15,58,605.60
2019,08,14,15,59,605.00
2019,08,14,16,00,602.90
2019,08,14,16,01,601.00
2019,08,14,16,02,600.10
2019,08,14,16,03,598.00
2019,08,14,16,04,596.90
2019,08,14,16,05,596.00
2019,08,14,16,06,593.10
2019,08,14,16,07,592.00
2019,08,14,16,08,591.10
2019,08,14,16,09,590.60
2019,08,14,16,10,586.50
2019,08,14,16,11,585.00
2019,08,14,16,12,583.70
2019,08,14,16,13,579.80
2019,08,14,16,14,577.30
2019,08,14,16,15,577.00
2019,08,14,16,16,575.30
2019,08,14,16,17,570.00
2019,08,14,16,18,565.70
2019,08,14,16,19,564.00
2019,08,14,16,20,564.00
2019,08,14,16,21,563.50
2019,08,14,16,22,563.00
2019,08,14,16,23,559.00
2019,08,14,16,24,557.00
2019,08,14,16,25,555.20
2019,08,14,16,26,551.80
2019,08,14,16,27,549.60
2019,08,14,16,28,548.00
2019,08,14,16,29,548.00
2019,08,14,16,30,548.00
2019,08,14,16,31,546.10
2019,08,14,16,32,543.50
2019,08,14,16,33,538.80
2019,08,14,16,34,534.40
2019,08,14,16,35,533.40
2019,08,14,16,36,530.40
2019,08,14,16,37,528.00
2019,08,14,16,38,525.10
2019,08,14,16,39,522.90
2019,08,14,16,40,520.70
2019,08,14,16,41,519.20
2019,08,14,16,42,519.00
2019,08,14,16,43,517.00
2019,08,14,16,44,514.40
2019,08,14,16,45,512.00
2019,08,14,16,46,511.10
2019,08,14,16,47,508.90
2019,08,14,16,48,508.00
2019,08,14,16,49,508.00
2019,08,14,16,50,504.00
2019,08,14,16,51,503.00
2019,08,14,16,52,503.00
2019,08,14,16,53,502.50
2019,08,14,16,54,501.00
2019,08,14,16,55,500.10
2019,08,14,16,56,499.00
2019,08,14,16,57,497.70
2019,08,14,16,58,497.00
2019,08,14,16,59,494.50
2019,08,14,17,00,491.90
2019,08,14,17,01,489.90
2019,08,14,17,02,487.80
2019,08,14,17,03,483.90
2019,08,14,17,04,479.10
2019,08,14,17,05,473.00
2019,08,14,17,06,468.90
2019,08,14,17,07,463.10
2019,08,14,17,08,461.60
2019,08,14,17,09,454.70
2019,08,14,17,10,451.20